Location: Newark
(46.7000°N, 60.6000°W)
Time: 03:47:27
(UTC+00:00)

A-11 Canister half - Pass Details

Date: 31 October 2020
Orbit: 1525 x 1683 km, 47.3° (Epoch: 23 November)

Event Time Altitude Azimuth Distance (km) Brightness Sun altitude
Rises 23:18:46 0° 290° (WNW) 4,713 12.8 -26.3°
Reaches altitude 10° 23:21:55 10° 287° (WNW) 3,715 12.0 -26.9°
Maximum altitude 23:30:53 54° 213° (SSW) 1,804 9.4 -28.4°
Enters shadow 23:34:55 34° 156° (SSE) 2,328 9.6 -29.1°
Drops below altitude 10° 23:39:47 10° 140° (SE) 3,694 - -29.9°
Sets 23:42:55 0° 136° (SE) 4,685 - -30.4°
